User: anonymous   Login
Location: Unspecified
(0.0000°N, 0.0000°E)
Time: 12:58:19
(UTC+00:00)
Language:

COSMOS 2437 - Orbit

View from above orbital plane
View from above orbital plane
View from above satellite
View from above satellite

Ground track
Ground track

The orbit data is extracted from the following two-line orbital elements,

1 32954U 08025B   17351.77840443  .00000045  00000-0  25487-3 0  9990
2 32954  82.5007 126.5265 0019532 256.9692 102.9208 12.42693969434120
Epoch (UTC): 17 December 2017 18:40:54
Eccentricity: 0.0019532
inclination: 82.5007°
perigee height: 1480 km
apogee height: 1510 km
right ascension of ascending node: 126.5265°
argument of perigee: 256.9692°
revolutions per day: 12.42693969
mean anomaly at epoch: 102.9208°
orbit number at epoch: 43412

The dashed part of the orbit path shows where the satellite is in the earth's shadow,  

DLR